Weather History for Philadelphia, PA

Change the Weather History Date:

Sunday, March 30, 2014

  Actual Average Record
Temperature  
Mean Temperature 44 °F 48 °F  
Max Temperature 49 °F 58 °F 86 °F (1998)
Min Temperature 38 °F 39 °F 18 °F (1887)
Degree Days  
Heating Degree Days 21 17  
Month to date heating degree days 785 650  
Since 1 July heating degree days 4441 4132  
Cooling Degree Days 0 0  
Month to date cooling degree days 0 0  
Year to date cooling degree days 0 0  
Moisture  
Dew Point 41 °F    
Average Humidity 78    
Maximum Humidity 86    
Minimum Humidity 70    
Precipitation  
Precipitation 0.90 in 0.13 in 1.59 in (2001)
Month to date precipitation 4.22 3.66  
Year to date precipitation 12.89 9.34  
Snow  
Snow 0.00 in 0.10 in 0.60 in (1942)
Month to date snowfall 8.5 2.9  
Since 1 July snowfall 68.0 21.9  
Snow Depth 0.00 in    
Sea Level Pressure  
Sea Level Pressure 29.54 in    
Wind  
Wind Speed 15 mph (North)    
Max Wind Speed 26 mph    
Max Gust Speed 33 mph    
Visibility 4 miles    
Events Rain    
T = Trace of Precipitation, MM = Missing Value Source: NWS Daily Summary

Daily Weather History Graph

Daily Weather History Graph

Search for Another Location

Airport:

Trip Planner

Search our weather history database for the weather conditions in past years. The results will help you decide how hot, cold, wet, or windy it might be!

Date:

Astronomy

Mar. 30, 2014 Rise Set
Actual Time 6:48 AM EDT 7:23 PM EDT
Civil Twilight 6:21 AM EDT 7:50 PM EDT
Nautical Twilight 5:49 AM EDT 8:22 PM EDT
Astronomical Twilight 5:16 AM EDT 8:55 PM EDT
Moon 6:32 AM EDT (3/30) 7:33 PM EDT (3/30)
Length of Visible Light 13h 29m
Length of Day
12h 34m
Waning Crescent, 0% of the Moon is Illuminated
Mar 30
Waning Crescent
Mar 30
New
Apr 7
First Quarter
Apr 15
Full
Apr 22
Last Quarter

Hourly Weather History & Observations

Time (EDT) Temp. Windchill Dew Point Humidity Pressure Visibility Wind Dir Wind Speed Gust Speed Precip Events Conditions
12:08 AM 46.0 °F 40.6 °F 43.0 °F 89% 29.61 in 4.0 mi NE 11.5 mph - 0.01 in Rain Light Rain
12:27 AM 46.0 °F 43.1 °F 44.1 °F 93% 29.61 in 4.0 mi ENE 5.8 mph - 0.01 in Rain Light Rain
12:54 AM 46.0 °F 42.5 °F 43.0 °F 89% 29.60 in 4.0 mi ENE 6.9 mph - 0.02 in   Light Drizzle
12:57 AM 46.0 °F 42.5 °F 43.0 °F 89% 29.59 in 5.0 mi ENE 6.9 mph - 0.00 in   Light Drizzle
1:54 AM 46.9 °F - 44.1 °F 90% 29.57 in 5.0 mi NE 6.9 mph - 0.00 in Rain Light Rain
2:01 AM 46.9 °F - 44.1 °F 90% 29.56 in 4.0 mi NE 6.9 mph - 0.00 in Rain Light Rain
2:16 AM 46.9 °F - 45.0 °F 93% 29.55 in 0.8 mi NE 5.8 mph - 0.00 in Rain Light Rain
2:50 AM 48.2 °F - 46.4 °F 93% 29.54 in 0.8 mi NNE 4.6 mph - 0.00 in   Overcast
2:54 AM 48.0 °F - 46.0 °F 93% 29.54 in 0.8 mi NNE 3.5 mph - 0.00 in   Overcast
3:10 AM 48.0 °F - 46.0 °F 93% 29.52 in 0.5 mi North 6.9 mph - N/A   Overcast
3:34 AM 48.9 °F - 46.0 °F 90% 29.52 in 0.8 mi North 9.2 mph - N/A   Overcast
3:54 AM 48.0 °F - 46.0 °F 93% 29.52 in 0.8 mi North 10.4 mph - 0.00 in   Light Drizzle
4:00 AM 48.0 °F - 45.0 °F 89% 29.52 in 1.0 mi North 11.5 mph - 0.00 in   Light Drizzle
4:17 AM 48.0 °F - 45.0 °F 89% 29.51 in 1.0 mi North 12.7 mph - 0.00 in   Light Drizzle
4:52 AM 48.2 °F - 44.6 °F 87% 29.52 in 2.0 mi North 10.4 mph - 0.00 in   Light Drizzle
4:54 AM 48.0 °F - 45.0 °F 89% 29.52 in 2.0 mi North 11.5 mph - 0.00 in   Light Drizzle
5:54 AM 48.0 °F - 45.0 °F 89% 29.49 in 2.0 mi North 15.0 mph - 0.00 in   Overcast
6:20 AM 48.0 °F - 45.0 °F 89% 29.50 in 2.0 mi NNE 12.7 mph - N/A   Overcast
6:33 AM 48.9 °F - 45.0 °F 86% 29.51 in 10.0 mi North 9.2 mph - N/A   Overcast
6:54 AM 48.0 °F - 44.1 °F 86% 29.50 in 10.0 mi North 15.0 mph - 0.00 in   Light Drizzle
7:16 AM 46.9 °F - 43.0 °F 86% 29.51 in 6.0 mi North 16.1 mph 20.7 mph 0.00 in   Light Drizzle
7:26 AM 46.9 °F - 44.1 °F 90% 29.51 in 3.0 mi North 15.0 mph - 0.00 in Rain Light Rain
7:36 AM 46.9 °F - 43.0 °F 86% 29.51 in 2.5 mi North 17.3 mph 26.5 mph 0.00 in Rain Light Rain
7:54 AM 46.9 °F - 43.0 °F 86% 29.51 in 2.5 mi North 16.1 mph - 0.01 in Rain Light Rain
8:07 AM 46.9 °F - 43.0 °F 86% 29.52 in 3.0 mi North 15.0 mph - 0.00 in Rain Light Rain
8:21 AM 46.9 °F - 43.0 °F 86% 29.51 in 3.0 mi North 15.0 mph 24.2 mph 0.00 in Rain Light Rain
8:54 AM 46.9 °F - 43.0 °F 86% 29.50 in 4.0 mi NNE 13.8 mph - 0.01 in Rain Light Rain
9:01 AM 46.9 °F - 42.1 °F 83% 29.51 in 7.0 mi NNE 13.8 mph - 0.00 in Rain Light Rain
9:16 AM 46.9 °F - 42.1 °F 83% 29.51 in 4.0 mi North 16.1 mph - 0.01 in Rain Light Rain
9:23 AM 46.9 °F - 43.0 °F 86% 29.51 in 2.0 mi North 12.7 mph - 0.04 in Rain Rain
9:54 AM 46.9 °F - 43.0 °F 86% 29.51 in 2.5 mi NNE 16.1 mph - 0.18 in Rain Light Rain
10:07 AM 46.9 °F - 43.0 °F 86% 29.50 in 1.8 mi North 16.1 mph - 0.03 in Rain Rain
10:21 AM 46.9 °F - 43.0 °F 86% 29.50 in 4.0 mi North 13.8 mph - 0.09 in Rain Light Rain
10:28 AM 46.9 °F - 43.0 °F 86% 29.50 in 1.5 mi NNE 13.8 mph - 0.09 in Rain Rain
10:54 AM 46.9 °F - 43.0 °F 86% 29.51 in 1.8 mi North 15.0 mph - 0.15 in Rain Rain
11:09 AM 46.9 °F - 43.0 °F 86% 29.51 in 1.5 mi North 12.7 mph - 0.05 in Rain Heavy Rain
11:20 AM 46.9 °F - 43.0 °F 86% 29.51 in 2.5 mi North 13.8 mph - 0.10 in Rain Light Rain
11:26 AM 46.9 °F - 43.0 °F 86% 29.51 in 5.0 mi North 13.8 mph - 0.10 in Rain Light Rain
11:46 AM 46.9 °F - 43.0 °F 86% 29.52 in 2.5 mi North 10.4 mph - 0.11 in Rain Light Rain
11:54 AM 46.9 °F - 43.0 °F 86% 29.52 in 2.0 mi North 9.2 mph - 0.14 in Rain Rain
12:06 PM 46.9 °F - 43.0 °F 86% 29.51 in 3.0 mi NNW 17.3 mph - 0.01 in Rain Light Rain
12:36 PM 46.9 °F - 42.1 °F 83% 29.52 in 2.5 mi North 17.3 mph - 0.02 in Rain Light Rain
12:54 PM 46.9 °F - 43.0 °F 86% 29.51 in 2.5 mi North 18.4 mph 24.2 mph 0.03 in Rain Light Rain
12:56 PM 46.9 °F - 43.0 °F 86% 29.51 in 2.5 mi North 17.3 mph 24.2 mph 0.00 in Rain Light Rain
1:24 PM 46.0 °F 38.0 °F 42.1 °F 86% 29.51 in 3.0 mi North 21.9 mph 26.5 mph 0.01 in Rain Light Rain
1:54 PM 46.0 °F 39.3 °F 42.1 °F 86% 29.51 in 4.0 mi North 16.1 mph - 0.02 in Rain Light Rain
2:24 PM 46.0 °F 39.0 °F 41.0 °F 83% 29.49 in 6.0 mi North 17.3 mph - 0.01 in Rain Light Rain
2:34 PM 46.0 °F 38.5 °F 41.0 °F 83% 29.49 in 7.0 mi North 19.6 mph - 0.01 in Rain Light Rain
2:47 PM 46.0 °F 38.5 °F 39.9 °F 79% 29.49 in 5.0 mi North 19.6 mph 26.5 mph 0.01 in Rain Light Rain
2:54 PM 46.0 °F 37.6 °F 39.9 °F 79% 29.49 in 5.0 mi North 24.2 mph 32.2 mph 0.01 in Rain Light Rain
3:54 PM 44.1 °F 37.4 °F 39.0 °F 82% 29.53 in 6.0 mi NW 13.8 mph - 0.08 in Rain Light Rain
4:00 PM 44.1 °F 37.1 °F 37.9 °F 79% 29.52 in 1.5 mi NNW 15.0 mph - 0.06 in Rain Rain
4:05 PM 43.0 °F 37.2 °F 39.0 °F 86% 29.53 in 2.5 mi NW 10.4 mph - 0.09 in Rain Rain
4:44 PM 43.0 °F 35.7 °F 37.9 °F 82% 29.54 in 2.5 mi NNW 15.0 mph - 0.20 in Rain Rain
4:54 PM 43.0 °F 35.7 °F 37.9 °F 82% 29.53 in 2.5 mi NNW 15.0 mph - 0.21 in Rain Rain
5:02 PM 43.0 °F 34.5 °F 37.9 °F 82% 29.53 in 5.0 mi NNW 19.6 mph - 0.01 in Rain Light Rain
5:24 PM 43.0 °F 35.4 °F 37.9 °F 82% 29.54 in 7.0 mi NNW 16.1 mph - 0.01 in Rain Light Rain
5:54 PM 43.0 °F 34.8 °F 37.0 °F 80% 29.55 in 7.0 mi NNW 18.4 mph - 0.01 in Rain Light Rain
6:17 PM 42.1 °F 32.8 °F 37.0 °F 82% 29.57 in 10.0 mi NNW 21.9 mph 27.6 mph 0.00 in   Overcast
6:54 PM 42.1 °F 34.2 °F 36.0 °F 79% 29.59 in 10.0 mi NNW 16.1 mph 25.3 mph 0.00 in   Overcast
7:54 PM 42.1 °F 33.3 °F 34.0 °F 73% 29.63 in 10.0 mi NNW 19.6 mph 26.5 mph N/A   Overcast
8:27 PM 41.0 °F 33.1 °F 35.1 °F 79% 29.65 in 10.0 mi NNW 15.0 mph 26.5 mph N/A   Overcast
8:28 PM 41.0 °F 33.5 °F 35.1 °F 79% 29.65 in 10.0 mi NNW 13.8 mph 26.5 mph N/A   Overcast
8:54 PM 39.9 °F 31.8 °F 34.0 °F 79% 29.67 in 10.0 mi NNW 15.0 mph 26.5 mph 0.00 in Rain Light Rain
9:01 PM 39.9 °F 30.5 °F 34.0 °F 79% 29.67 in 7.0 mi NNW 19.6 mph 25.3 mph 0.00 in Rain Light Rain
9:54 PM 39.0 °F 29.3 °F 32.0 °F 76% 29.69 in 7.0 mi NW 19.6 mph 27.6 mph 0.02 in Rain Light Rain
10:50 PM 39.2 °F 30.2 °F 32.0 °F 75% 29.70 in 10.0 mi NNW 17.3 mph 25.3 mph 0.02 in Rain Light Rain
10:54 PM 39.0 °F 29.9 °F 32.0 °F 76% 29.70 in 10.0 mi NNW 17.3 mph 25.3 mph 0.02 in Rain Light Rain
11:54 PM 39.0 °F 28.8 °F 30.9 °F 73% 29.73 in 10.0 mi NNW 21.9 mph - 0.00 in Rain Light Rain